date,City,No. Stations,Air Quality,Index Value,Prominent Pollutant
2020-02-05,Ernakulam,1.0,Satisfactory,100,PM2.5
2020-02-06,Ernakulam,1.0,Satisfactory,70,CO
2020-02-07,Ernakulam,1.0,Satisfactory,91,CO
2020-02-08,Ernakulam,1.0,Satisfactory,76,PM10
2020-02-09,Ernakulam,1.0,Satisfactory,66,PM10
2020-02-10,Ernakulam,1.0,Satisfactory,96,CO
2020-02-12,Ernakulam,1.0,Satisfactory,85,PM2.5
2020-02-14,Ernakulam,1.0,Satisfactory,91,PM2.5
2020-02-18,Ernakulam,1.0,Satisfactory,88,PM2.5
2020-02-19,Ernakulam,1.0,Moderate,143,PM2.5
2020-02-20,Ernakulam,1.0,Moderate,104,PM2.5
2020-02-21,Ernakulam,1.0,Moderate,125,PM2.5
2020-02-22,Ernakulam,1.0,Satisfactory,93,PM2.5
2020-02-23,Ernakulam,1.0,Satisfactory,62,CO
2020-02-24,Ernakulam,1.0,Satisfactory,78,CO
2020-02-25,Ernakulam,1.0,Satisfactory,78,CO
2020-02-27,Ernakulam,1.0,Satisfactory,82,PM2.5
2020-02-28,Ernakulam,1.0,Satisfactory,88,PM2.5
2020-02-29,Ernakulam,1.0,Satisfactory,83,CO
2020-03-01,Ernakulam,1.0,Satisfactory,68,CO
2020-03-02,Ernakulam,1.0,Satisfactory,86,CO
2020-03-03,Ernakulam,1.0,Satisfactory,86,CO
2020-03-04,Ernakulam,1.0,Satisfactory,93,CO
2020-03-05,Ernakulam,1.0,Satisfactory,98,CO
2020-03-06,Ernakulam,1.0,Satisfactory,94,CO
2020-03-07,Ernakulam,1.0,Satisfactory,61,CO
2020-03-08,Ernakulam,1.0,Satisfactory,65,CO
2020-03-09,Ernakulam,1.0,Satisfactory,83,CO
2020-03-12,Ernakulam,1.0,Satisfactory,86,CO
2020-03-14,Ernakulam,1.0,Satisfactory,77,CO
2020-03-15,Ernakulam,1.0,Satisfactory,69,PM10
2020-03-16,Ernakulam,1.0,Satisfactory,82,CO
2020-03-17,Ernakulam,1.0,Satisfactory,90,CO
2020-03-18,Ernakulam,1.0,Satisfactory,94,CO
2020-03-19,Ernakulam,1.0,Satisfactory,83,CO
2020-03-20,Ernakulam,1.0,Satisfactory,80,CO
2020-03-21,Ernakulam,1.0,Satisfactory,81,CO
2020-03-22,Ernakulam,1.0,Satisfactory,54,CO
2020-03-23,Ernakulam,1.0,Satisfactory,68,CO
2020-03-24,Ernakulam,1.0,Satisfactory,66,CO
2020-03-25,Ernakulam,1.0,Satisfactory,62,CO
2020-03-26,Ernakulam,1.0,Satisfactory,56,CO
2020-03-27,Ernakulam,1.0,Satisfactory,59,CO
2020-03-28,Ernakulam,1.0,Satisfactory,57,CO
2020-03-31,Ernakulam,1.0,Satisfactory,67,CO
2020-04-01,Ernakulam,1.0,Satisfactory,65,CO
2020-04-02,Ernakulam,1.0,Satisfactory,68,CO
2020-04-03,Ernakulam,1.0,Satisfactory,68,CO
2020-04-04,Ernakulam,1.0,Satisfactory,66,CO
2020-04-05,Ernakulam,1.0,Satisfactory,62,CO
2020-04-06,Ernakulam,1.0,Satisfactory,62,CO
2020-04-07,Ernakulam,1.0,Satisfactory,68,CO
2020-04-08,Ernakulam,1.0,Satisfactory,71,CO
2020-04-09,Ernakulam,1.0,Satisfactory,61,CO
2020-04-10,Ernakulam,1.0,Satisfactory,58,CO
2020-04-11,Ernakulam,1.0,Satisfactory,62,CO
2020-04-12,Ernakulam,1.0,Satisfactory,62,CO
2020-04-13,Ernakulam,1.0,Satisfactory,79,CO
2020-04-14,Ernakulam,1.0,Satisfactory,72,CO
2020-04-15,Ernakulam,1.0,Satisfactory,68,CO
2020-04-16,Ernakulam,1.0,Satisfactory,64,CO
2020-04-17,Ernakulam,1.0,Satisfactory,67,CO
2020-04-18,Ernakulam,1.0,Satisfactory,75,CO
2020-04-19,Ernakulam,1.0,Satisfactory,76,CO
2020-04-20,Ernakulam,1.0,Satisfactory,77,CO
2020-04-21,Ernakulam,1.0,Satisfactory,60,CO
2020-04-22,Ernakulam,1.0,Satisfactory,61,CO
2020-04-23,Ernakulam,1.0,Satisfactory,62,CO
2020-04-30,Ernakulam,1.0,Satisfactory,88,CO
2020-05-01,Ernakulam,1.0,Satisfactory,84,CO
2020-05-02,Ernakulam,1.0,Satisfactory,91,CO
2020-05-03,Ernakulam,1.0,Satisfactory,81,CO
2020-05-04,Ernakulam,1.0,Satisfactory,100,CO
2020-05-05,Ernakulam,1.0,Satisfactory,98,CO
2020-05-06,Ernakulam,1.0,Moderate,101,CO
2020-05-08,Ernakulam,1.0,Satisfactory,88,CO
2020-05-09,Ernakulam,1.0,Satisfactory,98,CO
2020-05-10,Ernakulam,1.0,Satisfactory,89,CO
2020-05-11,Ernakulam,1.0,Satisfactory,96,CO
2020-05-12,Ernakulam,1.0,Moderate,103,CO
2020-05-13,Ernakulam,1.0,Satisfactory,99,CO
2020-05-14,Ernakulam,1.0,Moderate,105,CO
2020-05-15,Ernakulam,1.0,Moderate,102,CO
2020-05-17,Ernakulam,1.0,Satisfactory,97,CO
2020-05-18,Ernakulam,1.0,Moderate,107,CO
2020-05-19,Ernakulam,1.0,Moderate,109,CO
2020-05-21,Ernakulam,1.0,Satisfactory,92,CO
2020-05-22,Ernakulam,1.0,Satisfactory,93,CO
2020-05-23,Ernakulam,1.0,Satisfactory,97,CO
2020-05-24,Ernakulam,1.0,Satisfactory,76,CO
2020-05-25,Ernakulam,1.0,Moderate,101,CO
2020-05-26,Ernakulam,1.0,Satisfactory,97,CO
2020-05-27,Ernakulam,1.0,Moderate,101,CO
2020-05-28,Ernakulam,1.0,Moderate,101,CO
2020-05-29,Ernakulam,1.0,Satisfactory,100,CO
2020-05-30,Ernakulam,1.0,Satisfactory,91,CO
2020-05-31,Ernakulam,1.0,Satisfactory,75,CO
2020-06-01,Ernakulam,1.0,Satisfactory,95,CO
2020-06-02,Ernakulam,1.0,Satisfactory,90,CO
2020-06-03,Ernakulam,1.0,Satisfactory,88,CO
2020-06-04,Ernakulam,1.0,Satisfactory,85,CO
2020-06-05,Ernakulam,1.0,Satisfactory,91,CO
2020-06-06,Ernakulam,1.0,Satisfactory,87,CO
2020-06-07,Ernakulam,1.0,Satisfactory,83,CO
2020-06-08,Ernakulam,1.0,Moderate,104,CO
2020-06-09,Ernakulam,1.0,Moderate,105,CO
2020-06-10,Ernakulam,1.0,Moderate,104,CO
2020-06-11,Ernakulam,1.0,Moderate,105,CO
2020-06-12,Ernakulam,1.0,Moderate,114,CO
2020-06-13,Ernakulam,1.0,Satisfactory,100,CO
2020-06-14,Ernakulam,1.0,Satisfactory,90,CO
2020-06-16,Ernakulam,1.0,Moderate,103,CO
2020-06-20,Ernakulam,1.0,Moderate,108,CO
2020-06-23,Ernakulam,1.0,Moderate,106,CO
2020-06-24,Ernakulam,1.0,Moderate,108,CO
2020-06-25,Ernakulam,1.0,Moderate,104,CO
2020-06-26,Ernakulam,1.0,Moderate,102,CO
2020-06-27,Ernakulam,1.0,Moderate,106,CO
2020-06-28,Ernakulam,1.0,Satisfactory,100,CO
2020-06-29,Ernakulam,1.0,Moderate,106,CO
2020-06-30,Ernakulam,1.0,Moderate,108,CO
2020-07-01,Ernakulam,1.0,Moderate,104,CO
2020-07-02,Ernakulam,1.0,Moderate,110,CO
2020-07-03,Ernakulam,1.0,Moderate,105,CO
2020-07-05,Ernakulam,1.0,Satisfactory,94,CO
2020-07-06,Ernakulam,1.0,Satisfactory,100,CO
2020-07-07,Ernakulam,1.0,Moderate,107,CO
2020-07-11,Ernakulam,1.0,Satisfactory,96,CO
2020-07-12,Ernakulam,1.0,Satisfactory,88,CO
2020-07-13,Ernakulam,1.0,Moderate,101,CO
2020-07-14,Ernakulam,1.0,Moderate,102,CO
2020-07-15,Ernakulam,1.0,Satisfactory,97,CO
2020-07-16,Ernakulam,1.0,Satisfactory,100,CO
2020-07-17,Ernakulam,1.0,Moderate,105,CO
2020-07-18,Ernakulam,1.0,Moderate,105,CO
2020-07-19,Ernakulam,1.0,Satisfactory,95,CO
2020-07-20,Ernakulam,1.0,Moderate,101,CO
2020-07-21,Ernakulam,1.0,Moderate,105,CO
2020-07-26,Ernakulam,1.0,Satisfactory,98,CO
2020-07-27,Ernakulam,1.0,Moderate,108,CO
2020-07-28,Ernakulam,1.0,Moderate,109,CO
2020-07-29,Ernakulam,1.0,Moderate,105,CO
2020-07-30,Ernakulam,1.0,Moderate,103,CO
2020-07-31,Ernakulam,1.0,Moderate,102,CO
2020-08-04,Ernakulam,1.0,Moderate,102,CO
2020-08-05,Ernakulam,1.0,Moderate,104,CO
2020-08-06,Ernakulam,1.0,Moderate,103,CO
2020-08-08,Ernakulam,1.0,Moderate,104,CO
2020-08-09,Ernakulam,1.0,Moderate,102,CO
2020-08-10,Ernakulam,1.0,Moderate,109,CO
2020-08-12,Ernakulam,1.0,Moderate,107,CO
2020-08-13,Ernakulam,1.0,Moderate,106,CO
2020-08-14,Ernakulam,1.0,Moderate,106,CO
2020-08-15,Ernakulam,1.0,Moderate,106,CO
2020-08-16,Ernakulam,1.0,Moderate,106,CO
2020-08-17,Ernakulam,1.0,Moderate,109,CO
2020-08-18,Ernakulam,1.0,Moderate,109,CO
2020-08-19,Ernakulam,1.0,Moderate,114,CO
2020-08-20,Ernakulam,1.0,Moderate,113,CO
2020-08-22,Ernakulam,1.0,Satisfactory,96,CO
2020-08-23,Ernakulam,1.0,Satisfactory,79,CO
2020-08-24,Ernakulam,1.0,Satisfactory,98,CO
2020-08-25,Ernakulam,1.0,Satisfactory,99,CO
2020-08-26,Ernakulam,1.0,Satisfactory,99,CO
2020-08-27,Ernakulam,1.0,Satisfactory,100,CO
2020-08-28,Ernakulam,1.0,Satisfactory,100,CO
2020-08-29,Ernakulam,1.0,Satisfactory,98,CO
2020-08-30,Ernakulam,1.0,Satisfactory,90,CO
2020-09-01,Ernakulam,1.0,Satisfactory,90,CO
2020-09-02,Ernakulam,1.0,Satisfactory,92,CO
2020-09-04,Ernakulam,1.0,Satisfactory,93,CO
2020-09-05,Ernakulam,1.0,Satisfactory,94,CO
2020-09-07,Ernakulam,1.0,Satisfactory,100,CO
2020-09-08,Ernakulam,1.0,Satisfactory,100,CO
2020-09-09,Ernakulam,1.0,Satisfactory,99,CO
2020-09-10,Ernakulam,1.0,Moderate,101,CO
2020-09-15,Ernakulam,1.0,Satisfactory,88,CO
2020-09-16,Ernakulam,1.0,Satisfactory,88,CO
2020-09-18,Ernakulam,1.0,Satisfactory,96,CO
2020-09-20,Ernakulam,1.0,Satisfactory,69,CO
2020-09-21,Ernakulam,1.0,Satisfactory,70,CO
2020-09-23,Ernakulam,1.0,Satisfactory,74,CO
2020-09-24,Ernakulam,1.0,Satisfactory,70,CO
2020-09-25,Ernakulam,1.0,Satisfactory,90,CO
2020-09-26,Ernakulam,1.0,Satisfactory,87,CO
2020-09-27,Ernakulam,1.0,Satisfactory,76,CO
2020-09-28,Ernakulam,1.0,Satisfactory,85,CO
2020-09-29,Ernakulam,1.0,Satisfactory,93,CO
2020-09-30,Ernakulam,1.0,Satisfactory,91,CO
2020-10-01,Ernakulam,1.0,Satisfactory,91,CO
2020-10-02,Ernakulam,1.0,Satisfactory,82,CO
2020-10-03,Ernakulam,1.0,Satisfactory,91,CO
2020-10-04,Ernakulam,1.0,Satisfactory,85,CO
2020-10-05,Ernakulam,1.0,Satisfactory,93,CO
2020-10-06,Ernakulam,1.0,Satisfactory,94,CO
2020-10-07,Ernakulam,1.0,Satisfactory,84,CO
2020-10-08,Ernakulam,1.0,Satisfactory,92,CO
2020-10-09,Ernakulam,1.0,Satisfactory,91,CO
2020-10-10,Ernakulam,1.0,Satisfactory,90,CO
2020-10-11,Ernakulam,1.0,Satisfactory,83,CO
2020-10-12,Ernakulam,1.0,Satisfactory,83,CO
2020-10-13,Ernakulam,1.0,Satisfactory,92,CO
2020-10-14,Ernakulam,1.0,Satisfactory,83,CO
2020-10-15,Ernakulam,1.0,Satisfactory,87,CO
2020-10-16,Ernakulam,1.0,Satisfactory,86,CO
2020-10-22,Ernakulam,1.0,Satisfactory,77,CO
2020-10-23,Ernakulam,1.0,Satisfactory,77,CO
2020-10-24,Ernakulam,1.0,Satisfactory,96,CO
2020-10-25,Ernakulam,1.0,Satisfactory,94,CO
2020-10-26,Ernakulam,1.0,Satisfactory,91,CO
2020-10-27,Ernakulam,1.0,Satisfactory,76,CO
2020-10-28,Ernakulam,1.0,Satisfactory,80,CO
2020-11-03,Ernakulam,1.0,Satisfactory,92,CO
2020-11-05,Ernakulam,1.0,Satisfactory,83,CO
2020-11-06,Ernakulam,1.0,Satisfactory,89,CO
2020-11-07,Ernakulam,1.0,Satisfactory,87,CO
2020-11-08,Ernakulam,1.0,Satisfactory,76,CO
2020-11-09,Ernakulam,1.0,Satisfactory,75,CO
2020-11-10,Ernakulam,1.0,Satisfactory,88,CO
2020-11-11,Ernakulam,1.0,Moderate,111,PM2.5
2020-11-12,Ernakulam,1.0,Moderate,139,PM2.5
2020-11-13,Ernakulam,1.0,Moderate,139,PM2.5
2020-11-14,Ernakulam,1.0,Satisfactory,96,CO
2020-11-15,Ernakulam,1.0,Satisfactory,79,CO
2020-11-16,Ernakulam,1.0,Satisfactory,87,CO
2020-11-17,Ernakulam,1.0,Satisfactory,91,CO
2020-11-18,Ernakulam,1.0,Moderate,102,CO
2020-11-19,Ernakulam,1.0,Moderate,103,CO
2020-11-20,Ernakulam,1.0,Moderate,102,CO
2020-11-21,Ernakulam,1.0,Moderate,102,CO
2020-11-24,Ernakulam,1.0,Moderate,123,PM2.5
2020-11-25,Ernakulam,1.0,Moderate,127,PM2.5
2020-11-26,Ernakulam,1.0,Satisfactory,72,CO
2020-11-27,Ernakulam,1.0,Satisfactory,65,CO
2020-11-28,Ernakulam,1.0,Satisfactory,69,CO
2020-11-29,Ernakulam,1.0,Satisfactory,69,CO
2020-11-30,Ernakulam,1.0,Satisfactory,76,CO
2020-12-01,Ernakulam,1.0,Satisfactory,76,CO
2020-12-02,Ernakulam,1.0,Satisfactory,78,CO
2020-12-03,Ernakulam,1.0,Moderate,126,PM2.5
2020-12-05,Ernakulam,1.0,Satisfactory,77,CO
2020-12-06,Ernakulam,1.0,Satisfactory,68,CO
2020-12-07,Ernakulam,1.0,Satisfactory,82,CO
2020-12-08,Ernakulam,1.0,Satisfactory,64,PM10
2020-12-09,Ernakulam,1.0,Satisfactory,52,CO
2020-12-10,Ernakulam,1.0,Satisfactory,75,PM2.5
2020-12-11,Ernakulam,1.0,Satisfactory,56,CO
2020-12-12,Ernakulam,1.0,Satisfactory,82,PM2.5
2020-12-13,Ernakulam,1.0,Satisfactory,60,PM2.5
2020-12-14,Ernakulam,1.0,Satisfactory,90,PM2.5
2020-12-15,Ernakulam,1.0,Moderate,104,PM2.5
2020-12-16,Ernakulam,1.0,Moderate,112,PM2.5
2020-12-17,Ernakulam,1.0,Moderate,136,PM2.5
2020-12-18,Ernakulam,1.0,Satisfactory,95,PM2.5
2020-12-20,Ernakulam,1.0,Moderate,119,PM2.5
2020-12-21,Ernakulam,1.0,Satisfactory,90,PM2.5
2020-12-22,Ernakulam,1.0,Moderate,103,PM2.5
2020-12-23,Ernakulam,1.0,Satisfactory,89,PM10
2020-12-24,Ernakulam,1.0,Satisfactory,86,PM2.5
2021-01-01,Ernakulam,1.0,Satisfactory,77,PM2.5
2021-01-04,Ernakulam,1.0,Satisfactory,56,CO
2021-01-05,Ernakulam,1.0,Satisfactory,57,PM2.5
2021-01-06,Ernakulam,1.0,Good,49,CO
2021-01-07,Ernakulam,1.0,Moderate,144,NO2
2021-01-08,Ernakulam,1.0,Satisfactory,63,CO
2021-01-09,Ernakulam,1.0,Satisfactory,62,CO
2021-01-10,Ernakulam,1.0,Satisfactory,54,CO
2021-01-11,Ernakulam,1.0,Satisfactory,59,CO
2021-01-12,Ernakulam,1.0,Satisfactory,69,PM10
2021-01-13,Ernakulam,1.0,Satisfactory,61,CO
2021-01-14,Ernakulam,1.0,Satisfactory,75,CO
2021-01-15,Ernakulam,1.0,Moderate,107,CO
2021-01-16,Ernakulam,1.0,Satisfactory,75,PM2.5
2021-01-17,Ernakulam,1.0,Good,41,PM10
2021-01-18,Ernakulam,1.0,Satisfactory,61,CO
2021-01-20,Ernakulam,1.0,Satisfactory,97,PM2.5
2021-01-22,Ernakulam,1.0,Moderate,108,PM2.5
2021-01-23,Ernakulam,1.0,Satisfactory,65,PM10
2021-01-26,Ernakulam,1.0,Satisfactory,93,PM2.5
2021-01-27,Ernakulam,1.0,Satisfactory,97,PM2.5
2021-01-28,Ernakulam,1.0,Moderate,136,PM2.5
2021-01-29,Ernakulam,1.0,Moderate,133,PM2.5
2021-01-30,Ernakulam,1.0,Moderate,137,PM2.5
2021-01-31,Ernakulam,1.0,Moderate,135,PM2.5
2021-02-01,Ernakulam,1.0,Moderate,118,PM2.5
2021-02-02,Ernakulam,1.0,Satisfactory,93,PM2.5
2021-02-04,Ernakulam,1.0,Moderate,105,PM2.5
2021-02-06,Ernakulam,1.0,Moderate,110,PM2.5
2021-02-07,Ernakulam,1.0,Moderate,139,PM2.5
2021-02-10,Ernakulam,1.0,Moderate,122,PM2.5
2021-02-11,Ernakulam,1.0,Moderate,108,PM2.5
2021-02-12,Ernakulam,1.0,Moderate,108,PM10
2021-02-13,Ernakulam,1.0,Moderate,120,PM2.5
2021-02-14,Ernakulam,1.0,Satisfactory,97,PM2.5
2021-02-15,Ernakulam,1.0,Satisfactory,95,PM2.5
2021-02-16,Ernakulam,1.0,Satisfactory,96,PM2.5
2021-02-17,Ernakulam,1.0,Moderate,116,PM2.5
2021-02-18,Ernakulam,1.0,Satisfactory,95,PM2.5
2021-02-19,Ernakulam,1.0,Satisfactory,77,PM2.5
2021-02-20,Ernakulam,1.0,Satisfactory,79,PM2.5
2021-02-21,Ernakulam,1.0,Satisfactory,61,PM2.5
2021-02-22,Ernakulam,1.0,Satisfactory,52,PM10
2021-02-23,Ernakulam,1.0,Satisfactory,65,PM10
2021-02-24,Ernakulam,1.0,Satisfactory,74,PM10
2021-02-25,Ernakulam,1.0,Satisfactory,62,PM10
2021-02-26,Ernakulam,1.0,Satisfactory,70,PM10
2021-02-27,Ernakulam,1.0,Satisfactory,84,PM2.5
2021-03-01,Ernakulam,1.0,Satisfactory,68,PM10
2021-03-02,Ernakulam,1.0,Satisfactory,54,PM10
2021-03-03,Ernakulam,1.0,Satisfactory,93,PM2.5
2021-03-04,Ernakulam,1.0,Satisfactory,84,PM2.5
2021-03-05,Ernakulam,1.0,Moderate,112,PM2.5
2021-03-06,Ernakulam,1.0,Satisfactory,93,PM10
2021-03-07,Ernakulam,1.0,Satisfactory,83,PM10
2021-03-08,Ernakulam,1.0,Satisfactory,76,PM10
2021-03-09,Ernakulam,1.0,Satisfactory,64,PM10
2021-03-10,Ernakulam,1.0,Satisfactory,57,PM10
2021-03-11,Ernakulam,1.0,Good,37,PM10
2021-03-14,Ernakulam,1.0,Satisfactory,59,PM10
2021-03-15,Ernakulam,1.0,Good,48,PM10
2021-03-16,Ernakulam,1.0,Satisfactory,83,PM2.5
2021-03-17,Ernakulam,1.0,Satisfactory,84,PM2.5
2021-03-30,Ernakulam,1.0,Satisfactory,56,PM10
2021-03-31,Ernakulam,1.0,Good,50,PM10
2021-04-03,Ernakulam,1.0,Good,46,PM2.5
2021-04-04,Ernakulam,1.0,Satisfactory,66,PM10
2021-04-05,Ernakulam,1.0,Moderate,104,PM10
2021-04-10,Ernakulam,1.0,Satisfactory,56,PM2.5
2021-04-11,Ernakulam,1.0,Good,37,PM10
2021-04-12,Ernakulam,1.0,Satisfactory,61,PM10
2021-04-13,Ernakulam,1.0,Satisfactory,51,PM2.5
2021-04-18,Ernakulam,1.0,Good,43,PM2.5
2021-04-19,Ernakulam,1.0,Satisfactory,63,PM10
2021-04-20,Ernakulam,1.0,Satisfactory,73,CO
2021-04-21,Ernakulam,1.0,Satisfactory,76,PM2.5
2021-04-22,Ernakulam,1.0,Good,41,CO
2021-04-23,Ernakulam,1.0,Satisfactory,55,CO
2021-04-24,Ernakulam,1.0,Satisfactory,60,PM10
2021-04-25,Ernakulam,1.0,Good,45,PM10
2021-04-26,Ernakulam,1.0,Satisfactory,54,CO
2021-04-27,Ernakulam,1.0,Satisfactory,55,PM10
2021-04-28,Ernakulam,1.0,Satisfactory,58,PM10
2021-04-29,Ernakulam,1.0,Satisfactory,56,PM10
2021-04-30,Ernakulam,1.0,Satisfactory,63,PM10
2021-05-01,Ernakulam,1.0,Satisfactory,58,PM10
2021-05-02,Ernakulam,1.0,Good,33,PM10
2021-05-03,Ernakulam,1.0,Good,42,CO
2021-05-04,Ernakulam,1.0,Good,40,CO
2021-05-05,Ernakulam,1.0,Good,50,CO
2021-05-07,Ernakulam,1.0,Good,46,CO
2021-05-08,Ernakulam,1.0,Good,42,PM10
2021-05-09,Ernakulam,1.0,Good,31,CO
2021-05-12,Ernakulam,1.0,Good,28,CO
2021-05-13,Ernakulam,1.0,Good,27,CO
2021-05-14,Ernakulam,1.0,Good,23,CO
2021-05-16,Ernakulam,1.0,Good,31,CO
2021-05-17,Ernakulam,1.0,Good,28,CO
2021-05-18,Ernakulam,1.0,Good,26,CO
2021-05-19,Ernakulam,1.0,Good,24,CO
2021-05-20,Ernakulam,1.0,Good,29,CO
2021-05-21,Ernakulam,1.0,Good,41,CO
2021-05-22,Ernakulam,1.0,Good,29,CO
2021-05-23,Ernakulam,1.0,Good,27,CO
2021-05-24,Ernakulam,1.0,Satisfactory,54,PM10
2021-05-26,Ernakulam,1.0,Good,34,CO
2021-05-28,Ernakulam,1.0,Good,47,PM10
2021-05-29,Ernakulam,1.0,Good,45,CO
2021-05-30,Ernakulam,1.0,Good,40,CO
2021-06-01,Ernakulam,1.0,Good,43,CO
2021-06-02,Ernakulam,1.0,Good,43,CO
2021-06-03,Ernakulam,1.0,Good,34,CO
2021-06-04,Ernakulam,1.0,Good,45,CO
2021-06-05,Ernakulam,1.0,Good,42,CO
2021-06-06,Ernakulam,1.0,Good,31,CO
2021-06-07,Ernakulam,1.0,Good,39,CO
2021-06-09,Ernakulam,1.0,Good,42,CO
2021-06-10,Ernakulam,1.0,Good,42,CO
2021-06-11,Ernakulam,1.0,Satisfactory,54,CO
2021-06-13,Ernakulam,1.0,Good,36,CO
2021-06-14,Ernakulam,1.0,Satisfactory,58,CO
2021-06-15,Ernakulam,1.0,Good,36,CO
2021-06-16,Ernakulam,1.0,Good,38,CO
2021-06-18,Ernakulam,1.0,Good,50,CO
2021-06-19,Ernakulam,1.0,Good,39,PM10
2021-06-20,Ernakulam,1.0,Good,48,PM10
2021-06-22,Ernakulam,1.0,Satisfactory,81,PM10
2021-06-23,Ernakulam,1.0,Satisfactory,70,PM10
2021-06-24,Ernakulam,1.0,Satisfactory,51,CO
2021-06-25,Ernakulam,1.0,Satisfactory,94,PM10
2021-06-26,Ernakulam,1.0,Satisfactory,64,PM10
2021-06-27,Ernakulam,1.0,Good,33,PM10
2021-06-29,Ernakulam,1.0,Good,49,PM10
2021-06-30,Ernakulam,1.0,Good,49,CO
2021-07-01,Ernakulam,1.0,Satisfactory,53,CO
2021-07-02,Ernakulam,1.0,Satisfactory,64,CO
2021-07-03,Ernakulam,1.0,Good,50,PM10
2021-07-04,Ernakulam,1.0,Good,35,CO
2021-07-05,Ernakulam,1.0,Satisfactory,57,CO
2021-07-06,Ernakulam,1.0,Satisfactory,54,CO
2021-07-07,Ernakulam,1.0,Satisfactory,58,CO
2021-07-09,Ernakulam,1.0,Good,46,CO
2021-07-11,Ernakulam,1.0,Good,44,CO
2021-07-12,Ernakulam,1.0,Satisfactory,58,CO
2021-07-13,Ernakulam,1.0,Satisfactory,61,CO
2021-07-14,Ernakulam,1.0,Satisfactory,67,CO
2021-07-15,Ernakulam,1.0,Satisfactory,56,CO
2021-07-16,Ernakulam,1.0,Satisfactory,58,CO
2021-07-17,Ernakulam,1.0,Good,50,CO
2021-07-18,Ernakulam,1.0,Good,45,CO
2021-07-19,Ernakulam,1.0,Satisfactory,60,CO
2021-07-21,Ernakulam,1.0,Satisfactory,60,CO
2021-07-22,Ernakulam,1.0,Good,50,CO
2021-07-24,Ernakulam,1.0,Good,44,CO
2021-07-25,Ernakulam,1.0,Good,37,CO
2021-07-26,Ernakulam,1.0,Good,41,CO
2021-07-28,Ernakulam,1.0,Good,49,CO
2021-07-29,Ernakulam,1.0,Good,42,CO
2021-07-30,Ernakulam,1.0,Good,41,CO
2021-07-31,Ernakulam,1.0,Good,41,PM10
2021-08-01,Ernakulam,1.0,Good,29,PM10
2021-08-02,Ernakulam,1.0,Good,38,PM10
2021-08-03,Ernakulam,1.0,Good,45,CO
2021-08-04,Ernakulam,1.0,Good,38,PM10
2021-08-05,Ernakulam,1.0,Good,42,PM10
2021-08-06,Ernakulam,1.0,Good,43,CO
2021-08-07,Ernakulam,1.0,Good,25,CO
2021-08-08,Ernakulam,1.0,Good,24,CO
2021-08-09,Ernakulam,1.0,Good,34,CO
2021-08-10,Ernakulam,1.0,Good,32,CO
2021-08-11,Ernakulam,1.0,Good,41,PM10
2021-08-12,Ernakulam,1.0,Good,41,CO
2021-08-14,Ernakulam,1.0,Good,39,CO
2021-08-15,Ernakulam,1.0,Satisfactory,55,PM10
2021-08-16,Ernakulam,1.0,Good,34,PM10
2021-08-17,Ernakulam,1.0,Good,49,PM10
2021-08-18,Ernakulam,1.0,Good,29,CO
2021-08-19,Ernakulam,1.0,Good,38,CO
2021-08-20,Ernakulam,1.0,Good,44,PM10
2021-08-21,Ernakulam,1.0,Good,50,PM10
2021-08-22,Ernakulam,1.0,Good,48,PM10
2021-08-23,Ernakulam,1.0,Good,32,PM10
2021-08-24,Ernakulam,1.0,Good,37,PM10
2021-08-25,Ernakulam,1.0,Good,32,PM10
2021-08-26,Ernakulam,1.0,Good,38,CO
2021-08-27,Ernakulam,1.0,Good,33,CO
2021-08-28,Ernakulam,1.0,Good,34,CO
2021-08-29,Ernakulam,1.0,Good,30,CO
2021-08-30,Ernakulam,1.0,Good,37,CO
2021-09-01,Ernakulam,1.0,Good,42,CO
2021-09-02,Ernakulam,1.0,Good,49,PM10
2021-09-03,Ernakulam,1.0,Good,41,PM10
2021-09-04,Ernakulam,1.0,Good,43,PM10
2021-09-05,Ernakulam,1.0,Good,29,CO
2021-09-06,Ernakulam,1.0,Good,31,CO
2021-09-07,Ernakulam,1.0,Good,35,CO
2021-09-08,Ernakulam,1.0,Good,36,CO
2021-09-09,Ernakulam,1.0,Satisfactory,59,PM10
2021-09-10,Ernakulam,1.0,Good,46,PM10
2021-09-11,Ernakulam,1.0,Good,41,PM10
2021-09-12,Ernakulam,1.0,Good,31,CO
2021-09-13,Ernakulam,1.0,Good,44,CO
2021-09-14,Ernakulam,1.0,Good,35,CO
2021-09-15,Ernakulam,1.0,Good,47,PM10
2021-09-16,Ernakulam,1.0,Good,32,PM10
2021-09-17,Ernakulam,1.0,Satisfactory,75,PM10
2021-09-18,Ernakulam,1.0,Satisfactory,55,PM10
2021-09-19,Ernakulam,1.0,Satisfactory,60,PM10
2021-09-20,Ernakulam,1.0,Satisfactory,63,PM10
2021-09-21,Ernakulam,1.0,Satisfactory,67,PM10
2021-09-22,Ernakulam,1.0,Good,43,PM10
2021-09-23,Ernakulam,1.0,Good,44,PM10
2021-09-25,Ernakulam,1.0,Satisfactory,58,PM10
2021-09-26,Ernakulam,1.0,Satisfactory,55,PM10
2021-09-27,Ernakulam,1.0,Good,39,CO
2021-09-28,Ernakulam,1.0,Good,46,CO
2021-09-29,Ernakulam,1.0,Satisfactory,54,CO
2021-09-30,Ernakulam,1.0,Satisfactory,58,CO
2021-10-01,Ernakulam,1.0,Satisfactory,53,CO
2021-10-02,Ernakulam,1.0,Good,50,CO
2021-10-03,Ernakulam,1.0,Good,46,CO
2021-10-04,Ernakulam,1.0,Good,50,CO
2021-10-06,Ernakulam,1.0,Satisfactory,51,CO
2021-10-07,Ernakulam,1.0,Good,44,CO
2021-10-08,Ernakulam,1.0,Good,42,CO
2021-10-09,Ernakulam,1.0,Good,48,CO
2021-10-10,Ernakulam,1.0,Good,41,CO
2021-10-11,Ernakulam,1.0,Good,45,CO
2021-10-23,Ernakulam,1.0,Good,43,PM10
2021-10-24,Ernakulam,1.0,Good,39,CO
2021-10-25,Ernakulam,1.0,Good,44,CO
2021-10-26,Ernakulam,1.0,Satisfactory,51,CO
2021-10-27,Ernakulam,1.0,Satisfactory,63,CO
2021-10-28,Ernakulam,1.0,Satisfactory,60,CO
2021-10-29,Ernakulam,1.0,Satisfactory,60,CO
2021-10-30,Ernakulam,1.0,Satisfactory,54,CO
2021-10-31,Ernakulam,1.0,Satisfactory,63,CO
2021-11-01,Ernakulam,1.0,Satisfactory,62,CO
2021-11-02,Ernakulam,1.0,Satisfactory,55,CO
2021-11-05,Ernakulam,1.0,Good,42,CO
2021-11-06,Ernakulam,1.0,Good,44,CO
2021-11-07,Ernakulam,1.0,Good,44,CO
2021-11-08,Ernakulam,1.0,Satisfactory,52,PM10
2021-11-09,Ernakulam,1.0,Satisfactory,57,CO
2021-11-10,Ernakulam,1.0,Moderate,113,PM2.5
2021-11-11,Ernakulam,1.0,Satisfactory,69,PM10
2021-11-12,Ernakulam,1.0,Satisfactory,82,PM10
2021-11-13,Ernakulam,1.0,Satisfactory,53,CO
2021-11-14,Ernakulam,1.0,Good,43,CO
2021-11-15,Ernakulam,1.0,Good,49,CO
2021-11-16,Ernakulam,1.0,Satisfactory,57,CO
2021-11-17,Ernakulam,1.0,Satisfactory,54,CO
2021-11-18,Ernakulam,1.0,Satisfactory,79,CO
2021-11-19,Ernakulam,1.0,Satisfactory,71,CO
2021-11-20,Ernakulam,1.0,Good,43,CO
2021-11-21,Ernakulam,1.0,Good,48,CO
2021-11-24,Ernakulam,1.0,Satisfactory,60,CO
2021-11-25,Ernakulam,1.0,Satisfactory,65,CO
2021-11-26,Ernakulam,1.0,Satisfactory,61,CO
2021-11-27,Ernakulam,1.0,Satisfactory,72,PM2.5
2021-11-28,Ernakulam,1.0,Good,44,CO
2021-11-29,Ernakulam,1.0,Good,43,CO
2021-11-30,Ernakulam,1.0,Satisfactory,55,CO
2021-12-01,Ernakulam,1.0,Satisfactory,62,CO
2021-12-02,Ernakulam,1.0,Good,42,CO
2021-12-03,Ernakulam,1.0,Good,42,CO
2021-12-04,Ernakulam,1.0,Good,50,CO
2021-12-05,Ernakulam,1.0,Good,41,CO
2021-12-06,Ernakulam,1.0,Good,44,CO
2021-12-07,Ernakulam,1.0,Satisfactory,55,CO
2021-12-08,Ernakulam,1.0,Satisfactory,55,PM2.5
2021-12-09,Ernakulam,1.0,Satisfactory,84,PM2.5
2021-12-10,Ernakulam,1.0,Satisfactory,63,PM2.5
2021-12-11,Ernakulam,1.0,Satisfactory,56,CO
2021-12-12,Ernakulam,1.0,Satisfactory,57,PM2.5
2021-12-13,Ernakulam,1.0,Satisfactory,63,PM2.5
2021-12-15,Ernakulam,1.0,Satisfactory,61,PM2.5
2021-12-16,Ernakulam,1.0,Satisfactory,78,PM2.5
2021-12-17,Ernakulam,1.0,Moderate,112,PM2.5
2021-12-18,Ernakulam,1.0,Moderate,158,PM2.5
2021-12-19,Ernakulam,1.0,Moderate,150,PM2.5
2021-12-20,Ernakulam,1.0,Moderate,152,PM2.5
2021-12-21,Ernakulam,1.0,Moderate,131,PM2.5
2021-12-22,Ernakulam,1.0,Moderate,181,PM2.5
2021-12-23,Ernakulam,1.0,Moderate,141,PM2.5
2021-12-24,Ernakulam,1.0,Moderate,158,PM2.5
2021-12-25,Ernakulam,1.0,Moderate,171,PM2.5
2021-12-26,Ernakulam,1.0,Moderate,190,PM2.5
2021-12-27,Ernakulam,1.0,Moderate,143,PM2.5
2021-12-28,Ernakulam,1.0,Moderate,142,PM2.5
2021-12-29,Ernakulam,1.0,Moderate,104,PM2.5
2021-12-30,Ernakulam,1.0,Satisfactory,93,PM2.5
2021-12-31,Ernakulam,1.0,Satisfactory,84,PM2.5
2022-01-01,Ernakulam,1.0,Satisfactory,70,NO2
2022-01-02,Ernakulam,1.0,Good,49,CO
2022-01-03,Ernakulam,1.0,Satisfactory,68,PM2.5
2022-01-04,Ernakulam,1.0,Satisfactory,73,PM2.5
2022-01-05,Ernakulam,1.0,Moderate,106,PM2.5
2022-01-06,Ernakulam,1.0,Moderate,144,PM2.5
2022-01-07,Ernakulam,1.0,Moderate,104,PM2.5
2022-01-08,Ernakulam,1.0,Moderate,113,PM2.5
2022-01-09,Ernakulam,1.0,Satisfactory,75,PM2.5
2022-01-10,Ernakulam,1.0,Satisfactory,74,PM2.5
2022-01-11,Ernakulam,1.0,Satisfactory,85,PM2.5
2022-01-12,Ernakulam,1.0,Satisfactory,64,PM2.5
2022-01-13,Ernakulam,1.0,Satisfactory,54,PM2.5